Flag for Malaysia Weather past 2 weeks in Kuching, Malaysia

Now
86 °F

Broken clouds.


Feels Like: 93 °F
Forecast: 76 / 90 °F
Wind: 9 mph from West

Location: Kuching Airport

Current Time: Aug 1, 2015 at 11:57:09 AM

Latest Report: Aug 1, 2015 at 11:30 AM


Visibility: N/A

Pressure: 29.89 "Hg

Humidity: 66%

Dew point: 73 °F

Location of KuchingLocation

Historic Weather in Kuching — Graph

°F

Kuching temperature yesterday

Maximum temperature yesterday: 84 °F (at 11:30 AM)
Minimum temperature yesterday: 75 °F (at 2:00 AM)
Average temperature yesterday: 77 °F

Past Weeks' High & Low Weather Summary

 TemperatureHumidityPressure
High95 °F (Jul 17, 2:00 PM)100% (Jul 20, 7:00 AM)30.01 "Hg (Jul 20, 7:00 AM)
Low72 °F (Jul 23, 4:00 AM)52% (Jul 21, 4:30 PM)29.71 "Hg (Jul 17, 3:30 PM)
Average80 °F84%29.86 "Hg
* Reported Jul 17 10:00 AM — Aug 1 10:30 AM, Kuching, Weather by CustomWeather, © 2015

Note: Actual official high and low records may vary slightly from our data, if they occured in-between our weather recording intervals... More about our weather records

Advertising

Kuching weather history for previous 24 hours

 ConditionsComfort  
Time TempWeatherWind HumidityBarometerVisibility
10:30 AM
Sat, Aug 1
82 °FBroken clouds.6 mph79%29.92 "HgN/A
10:00 AM81 °FBroken clouds.8 mph79%29.92 "HgN/A
9:30 AM79 °FPartly sunny.7 mph84%29.92 "HgN/A
9:00 AM77 °FPartly sunny.3 mph89%29.92 "HgN/A
8:30 AM75 °FBroken clouds.2 mph94%29.92 "HgN/A
8:00 AM73 °FBroken clouds.3 mph100%29.92 "HgN/A
7:30 AM73 °FBroken clouds.3 mph100%29.89 "HgN/A
7:00 AM73 °FBroken clouds.1 mph100%29.89 "HgN/A
6:30 AM73 °FPartly cloudy.No wind94%29.89 "HgN/A
6:00 AM73 °FPartly cloudy.3 mph100%29.89 "HgN/A
5:30 AM73 °FPartly cloudy.2 mph100%29.89 "HgN/A
5:00 AM73 °FPartly cloudy.1 mph94%29.89 "HgN/A
4:30 AM73 °FPartly cloudy.1 mph100%29.89 "HgN/A
4:00 AM73 °FPassing clouds.2 mph100%29.86 "HgN/A
3:30 AM73 °FPartly cloudy.3 mph100%29.86 "HgN/A
3:00 AM73 °FPartly cloudy.No wind100%29.89 "HgN/A
2:30 AM73 °FPartly cloudy.1 mph100%29.89 "HgN/A
2:00 AM73 °FPartly cloudy.1 mph100%29.89 "HgN/A
1:30 AM73 °FPassing clouds.2 mph100%29.89 "HgN/A
1:00 AM73 °FPassing clouds.2 mph100%29.92 "HgN/A
12:30 AM75 °FPassing clouds.3 mph94%29.92 "HgN/A
12:00 AM73 °FPassing clouds.2 mph100%29.92 "HgN/A
11:30 PM
Fri, Jul 31
75 °FPassing clouds.3 mph94%29.92 "HgN/A
11:00 PM75 °FPartly cloudy.1 mph94%29.92 "HgN/A
10:30 PM75 °FPartly cloudy.1 mph94%29.92 "HgN/A
10:00 PM75 °FPartly cloudy.2 mph94%29.89 "HgN/A
9:30 PM75 °FPartly cloudy.3 mph94%29.92 "HgN/A
9:00 PM75 °FPartly cloudy.1 mph94%29.89 "HgN/A
8:30 PM75 °FLight rain. Partly cloudy.1 mph94%29.89 "Hg5 mi
8:00 PM75 °FPartly cloudy.No wind94%29.86 "HgN/A
7:30 PM75 °FPartly cloudy.5 mph94%29.86 "HgN/A
7:00 PM75 °FLight rain. Partly cloudy.2 mph94%29.83 "HgN/A
6:30 PM75 °FLight rain. Broken clouds.3 mph94%29.83 "HgN/A
6:00 PM77 °FBroken clouds.2 mph89%29.83 "HgN/A
5:30 PM77 °FBroken clouds.5 mph89%29.83 "HgN/A
5:00 PM75 °FLight rain. Broken clouds.8 mph94%29.83 "HgN/A
4:30 PM75 °FLight rain. Broken clouds.7 mph94%29.83 "HgN/A
4:00 PM75 °FLight rain. Broken clouds.6 mph94%29.83 "HgN/A
3:30 PM75 °FRain. Broken clouds.7 mph94%29.86 "Hg5 mi
3:00 PM75 °FThunderstorms. Broken clouds.8 mph94%29.86 "Hg3 mi
2:30 PM75 °FStrong thunderstorms. Broken clouds.7 mph100%29.86 "Hg3 mi
2:00 PM75 °FStrong thunderstorms. Broken clouds.3 mph100%29.86 "Hg3 mi
1:30 PM75 °FStrong thunderstorms. Broken clouds.6 mph100%29.89 "Hg2 mi
1:00 PM75 °FThunderstorms. Broken clouds.13 mph100%29.89 "Hg1 mi
12:30 PM82 °FSprinkles. Broken clouds.6 mph79%29.86 "HgN/A
12:00 PM84 °FBroken clouds.1 mph74%29.86 "HgN/A
11:30 AM84 °FBroken clouds.2 mph79%29.89 "HgN/A
11:00 AM82 °FBroken clouds.3 mph84%29.89 "HgN/A
Weather by CustomWeather, © 2015

See weather overviewHow to use our weather pages